Weather in Sovkhoz Chausovo

Russia / Kaluga Oblast     54°49′42″N   36°54′30″E
temp.,
°C
wind,
m/s
gust,
m/s
humid.,
%
clouds,
%
prec.,
mm/h
press.,
hPa
HPBL,
m
24 may, tue
tue2400:00+4wnw367169 0.0 100679
03:00+3wnw3470100 0.0 100773
06:00+5wnw2666100 0.0 1007172
09:00+9nw5950100 0.0 1007872
12:00+11nw61036100 0.0 10071922
15:00+12nnw6938100 0.0 10082243
18:00+9n575991 0.0 10101189
21:00+5n367660 0.0 1012160
25 may, wed
wed2500:00+1nnw23875 0.0 101448
03:000nnw22945 0.0 101537
06:00+2nnw248470 0.0 1016159
09:00+7nnw345963 0.0 10161236
12:00+9nw3555100 0.0 10161547
15:00+10wnw3560100 0.0 10161380
18:00+9nw247597 0.0 1015537
21:00+5ese119076 0.0 101510
26 may, thu
thu2600:00+4ssw239448 0.0 101546
03:00+4ssw2496100 0.0 101364
06:00+7sw148945 0.0 1011100
09:00+14sw366898 0.0 1009391
12:00+18sw574998 0.2 10071673
15:00+14sw61078100 0.9 1006950
18:00+10s3796100 1.3 1004570
21:00+9sw2799100 2.6 1002389
27 may, fri
fri2700:00+10w379846 1.3 1002288
03:00+8sw3109890 1.6 1002278
06:00+10wsw61394100 1.4 1001821
09:00+9w71292100 3.8 10021074
12:00+12w8128066 0.3 10031111
15:00+16w711518 0.7 10032239
18:00+14wsw5106532 0.1 10041368
21:00+12sw4116278 0.2 1004462
28 may, sat
sat2800:00+9sw41192100 0.8 1002438
03:00+9sw3898100 4.1 1000390
06:00+9wsw41095100 2.5 1000654
09:00+11wsw698218 2.8 10001080
12:00+14wsw7104937 0.1 10012261
15:00+13wsw8106088 0.3 10021620
18:00+11wsw597498 0.6 10041061
21:00+9sw51277100 0.8 1005630